CW3467 Weather Reports


Display with metric or nautical units.
time (UTC)temp
F
wind
direction
speed
MPH
gust
MPH
rain 1hr
in
rain 24hr
in
rain mn
in
humidity
%
barometer
mb
20260507065504 51 239 0.0 1.0 0.00 0.00 0.00 82 1015.0
20260507065004 49 238 0.0 1.0 0.00 0.00 0.00 85 1014.7
20260507064504 49 235 0.0 1.0 0.00 0.00 0.00 88 1014.7
20260507064025 48 240 0.0 1.0 0.00 0.00 0.00 89 1015.0
20260507063504 47 244 0.0 1.0 0.00 0.00 0.00 90 1014.8
20260507063004 46 241 0.0 1.0 0.00 0.00 0.00 92 1014.7
20260507062504 46 243 0.0 1.0 0.00 0.00 0.00 93 1014.8
20260507062025 45 244 0.0 1.0 0.00 0.00 0.00 93 1014.8
20260507061504 45 237 0.0 1.0 0.00 0.00 0.00 93 1014.9
20260507061004 45 235 0.0 1.0 0.00 0.00 0.00 94 1014.7
20260507060505 44 231 0.0 1.0 0.00 0.00 0.00 93 1014.6
20260507060004 44 0 0.0 0.0 0.00 0.00 0.00 93 1014.3
20260507055504 44 220 0.0 1.0 0.00 0.00 0.00 93 1014.3
20260507055004 44 224 0.0 2.0 0.00 0.00 0.00 93 1014.3
20260507054504 44 224 0.0 2.0 0.00 0.00 0.00 93 1014.3
20260507054025 44 225 0.0 1.0 0.00 0.00 0.00 94 1014.5
20260507053525 44 236 0.0 1.0 0.00 0.00 0.00 94 1014.6
20260507053005 44 238 0.0 1.0 0.00 0.00 0.00 94 1014.3
20260507052504 44 234 0.0 1.0 0.00 0.00 0.00 93 1014.2
20260507052004 44 226 0.0 1.0 0.00 0.00 0.00 93 1014.5
20260507051525 44 225 0.0 1.0 0.00 0.00 0.00 93 1014.1
20260507051004 44 222 0.0 2.0 0.00 0.00 0.00 92 1014.2
20260507050504 44 221 0.0 2.0 0.00 0.00 0.00 92 1014.2
20260507050025 44 222 0.0 1.0 0.00 0.00 0.00 93 1014.3
20260507045504 44 223 0.0 1.0 0.00 0.00 0.00 92 1014.1
20260507045004 44 222 1.0 1.0 0.00 0.00 0.00 92 1014.1
20260507044525 44 222 1.0 1.0 0.00 0.00 0.00 92 1013.9
20260507044025 44 224 0.0 1.0 0.00 0.00 0.00 92 1013.9
20260507043504 44 225 0.0 1.0 0.00 0.00 0.00 92 1014.1
20260507043004 45 224 0.0 1.0 0.00 0.00 0.00 92 1014.0
20260507042504 45 225 0.0 1.0 0.00 0.00 0.00 92 1013.9
20260507042004 45 225 0.0 1.0 0.00 0.00 0.00 92 1014.0
20260507041504 45 223 0.0 1.0 0.00 0.00 0.00 91 1013.9
20260507041004 45 222 1.0 2.0 0.00 0.00 0.00 91 1014.0
20260507040504 45 222 1.0 2.0 0.00 0.00 0.00 91 1013.9
20260507040025 45 222 0.0 2.0 0.00 0.00 0.00 92 1013.9
20260507035504 45 223 0.0 1.0 0.00 0.00 0.00 91 1013.9
20260507035004 45 224 1.0 1.0 0.00 0.00 0.00 92 1013.8
20260507034504 45 225 1.0 1.0 0.00 0.00 0.00 92 1014.0
20260507034004 45 223 1.0 1.0 0.00 0.00 0.00 92 1013.8
20260507033504 46 223 1.0 1.0 0.00 0.00 0.00 91 1014.2
20260507033025 45 225 0.0 1.0 0.00 0.00 0.00 92 1014.0
20260507032504 46 221 0.0 1.0 0.00 0.00 0.00 90 1013.9
20260507032025 46 223 0.0 1.0 0.00 0.00 0.00 90 1014.0
20260507031504 46 224 0.0 1.0 0.00 0.00 0.00 91 1014.1
20260507031004 46 221 0.0 1.0 0.00 0.00 0.00 91 1014.0
20260507030504 46 0 0.0 0.0 0.00 0.00 0.00 91 1014.1
20260507030025 46 0 0.0 0.0 0.00 0.00 0.00 91 1014.0
20260507025504 46 223 0.0 2.0 0.00 0.00 0.00 90 1014.2
20260507025004 46 223 0.0 2.0 0.00 0.00 0.00 91 1014.2
20260507024504 46 224 0.0 1.0 0.00 0.00 0.00 91 1014.0
20260507024004 46 225 0.0 1.0 0.00 0.00 0.00 92 1014.0
20260507023504 46 223 0.0 1.0 0.00 0.00 0.00 91 1013.9
20260507023004 46 221 0.0 1.0 0.00 0.00 0.00 91 1014.1
20260507022504 47 221 1.0 1.0 0.00 0.00 0.00 90 1014.1
20260507022025 46 222 0.0 1.0 0.00 0.00 0.00 90 1014.0
20260507021504 46 224 0.0 1.0 0.00 0.00 0.00 90 1013.9
20260507021004 46 230 0.0 1.0 0.00 0.00 0.00 90 1013.9
20260507020504 47 230 0.0 1.0 0.00 0.00 0.00 90 1013.9
20260507020025 47 232 0.0 1.0 0.00 0.00 0.00 89 1013.9
20260507015504 47 239 0.0 1.0 0.00 0.00 0.00 89 1013.9
20260507015025 47 235 0.0 1.0 0.00 0.00 0.00 89 1013.7
20260507014504 47 224 0.0 2.0 0.00 0.00 0.00 89 1013.8
20260507014004 47 223 1.0 2.0 0.00 0.00 0.00 89 1013.8
20260507013525 47 224 1.0 1.0 0.00 0.00 0.00 89 1013.8
20260507013004 47 225 0.0 1.0 0.00 0.00 0.00 89 1013.8
20260507012504 47 225 1.0 2.0 0.00 0.00 0.00 89 1013.9
20260507012004 47 225 1.0 2.0 0.00 0.00 0.00 88 1014.1
20260507011525 47 224 0.0 1.0 0.00 0.00 0.00 88 1014.1
20260507011004 47 224 1.0 2.0 0.00 0.00 0.00 88 1014.2
20260507010504 47 221 1.0 2.0 0.00 0.00 0.00 89 1014.1
20260507010005 47 220 1.0 2.0 0.00 0.00 0.00 89 1014.2
20260507005505 47 223 1.0 2.0 0.00 0.00 0.00 89 1013.9
20260507005005 47 226 1.0 2.0 0.00 0.00 0.00 89 1014.1
20260507004505 48 225 1.0 2.0 0.00 0.00 0.00 88 1014.1
20260507004005 48 219 0.0 2.0 0.00 0.00 0.00 87 1014.5
20260507003505 48 220 0.0 1.0 0.00 0.00 0.00 87 1014.1
20260507003005 48 223 0.0 1.0 0.00 0.00 0.00 87 1014.3
20260507002505 48 225 0.0 1.0 0.00 0.00 0.00 88 1014.2
20260507002005 48 223 0.0 1.0 0.00 0.00 0.00 88 1014.1
20260507001526 48 223 0.0 1.0 0.00 0.00 0.00 88 1014.1
20260507001005 48 225 0.0 1.0 0.00 0.00 0.00 88 1014.3
20260507000505 49 223 0.0 1.0 0.00 0.00 0.00 87 1014.0
20260507000005 49 224 0.0 1.0 0.00 0.00 0.00 88 1014.1
20260506235505 49 227 0.0 1.0 0.00 0.00 0.00 88 1014.2
20260506235004 49 228 0.0 1.0 0.00 0.00 0.00 88 1014.1
20260506234505 49 0 0.0 0.0 0.00 0.00 0.00 87 1014.2
20260506234004 50 0 0.0 0.0 0.00 0.00 0.00 86 1013.9
20260506233505 49 0 0.0 0.0 0.00 0.00 0.00 86 1014.0
20260506233005 50 247 0.0 1.0 0.00 0.00 0.00 86 1014.0
20260506232526 50 247 0.0 1.0 0.00 0.00 0.00 86 1014.1
20260506232004 50 0 0.0 0.0 0.00 0.00 0.00 87 1014.0
20260506231505 50 0 0.0 0.0 0.00 0.00 0.00 87 1013.8
20260506231005 50 270 1.0 2.0 0.00 0.00 0.00 87 1013.9
20260506230504 50 261 1.0 2.0 0.00 0.00 0.00 86 1013.9
20260506230005 51 248 0.0 2.0 0.00 0.00 0.00 84 1013.9
20260506225505 51 187 0.0 1.0 0.00 0.00 0.00 84 1013.7
20260506225005 51 197 0.0 1.0 0.00 0.00 0.00 82 1013.8
20260506224505 51 222 0.0 1.0 0.00 0.00 0.00 83 1013.5
20260506224005 50 230 0.0 1.0 0.00 0.00 0.00 84 1013.8
20260506223505 50 228 0.0 1.0 0.00 0.00 0.00 84 1013.7
20260506223005 50 227 0.0 1.0 0.00 0.00 0.00 84 1013.6
20260506222504 50 225 1.0 2.0 0.00 0.00 0.00 83 1013.6
20260506222025 51 231 1.0 2.0 0.00 0.00 0.00 83 1013.7
20260506221505 51 255 0.0 2.0 0.00 0.00 0.00 83 1013.5
20260506221005 51 236 0.0 1.0 0.00 0.00 0.00 82 1013.6
20260506220525 51 230 0.0 2.0 0.00 0.00 0.00 81 1013.6
20260506220026 51 226 0.0 2.0 0.00 0.00 0.00 81 1013.7
20260506215504 51 223 0.0 1.0 0.00 0.00 0.00 81 1013.5
20260506215006 51 222 0.0 1.0 0.00 0.00 0.00 81 1013.6
20260506214505 51 233 0.0 1.0 0.00 0.00 0.00 81 1013.5
20260506214005 51 232 0.0 1.0 0.00 0.00 0.00 81 1013.7
20260506213025 52 230 0.0 1.0 0.00 0.00 0.00 79 1013.5
20260506212504 53 226 1.0 3.0 0.00 0.00 0.00 77 1013.3
20260506212004 54 227 1.0 3.0 0.00 0.00 0.00 74 1013.4
20260506211504 54 225 1.0 3.0 0.00 0.00 0.00 74 1013.4
20260506211004 54 227 1.0 3.0 0.00 0.00 0.00 75 1013.3
20260506210505 53 230 1.0 3.0 0.00 0.00 0.00 75 1013.4
20260506210005 54 223 1.0 4.0 0.00 0.00 0.00 75 1013.2
20260506205504 54 213 1.0 4.0 0.00 0.00 0.00 75 1013.3
20260506205004 54 200 1.0 4.0 0.00 0.00 0.00 75 1013.0
20260506204504 54 190 1.0 4.0 0.00 0.00 0.00 74 1013.2
20260506204004 54 180 1.0 4.0 0.00 0.00 0.00 74 1013.1
20260506203504 54 230 1.0 3.0 0.00 0.00 0.00 73 1013.0
20260506203004 54 246 1.0 6.0 0.00 0.00 0.00 73 1012.7
20260506202505 54 238 1.0 6.0 0.00 0.00 0.00 73 1012.7
20260506202004 54 208 0.0 2.0 0.00 0.00 0.00 74 1012.7
20260506201504 55 222 0.0 1.0 0.00 0.00 0.00 74 1012.6
20260506201004 55 231 0.0 2.0 0.00 0.00 0.00 72 1012.7
20260506200504 55 228 0.0 2.0 0.00 0.00 0.00 71 1012.5
20260506200004 56 229 1.0 3.0 0.00 0.00 0.00 70 1012.4
20260506195504 56 234 1.0 3.0 0.00 0.00 0.00 70 1012.3
20260506195004 56 246 1.0 4.0 0.00 0.00 0.00 70 1012.2
20260506194505 56 248 2.0 4.0 0.00 0.00 0.00 69 1012.0
20260506194025 57 240 2.0 4.0 0.00 0.00 0.00 68 1012.0
20260506193504 57 233 1.0 4.0 0.00 0.00 0.00 66 1012.3
20260506193025 57 230 1.0 6.0 0.00 0.00 0.00 66 1011.8
20260506192504 57 237 1.0 6.0 0.00 0.00 0.00 66 1011.9
20260506192004 57 250 2.0 4.0 0.00 0.00 0.00 66 1011.7
20260506191504 57 252 2.0 7.0 0.00 0.00 0.00 66 1011.5
20260506191004 58 247 1.0 7.0 0.00 0.00 0.00 65 1011.5
20260506190504 58 242 1.0 3.0 0.00 0.00 0.00 64 1011.5
20260506190005 59 233 0.0 2.0 0.00 0.00 0.00 65 1011.5
20260506185525 59 225 0.0 3.0 0.00 0.00 0.00 64 1011.7
20260506185004 59 228 0.0 3.0 0.00 0.00 0.00 62 1011.7
20260506184504 60 225 0.0 2.0 0.00 0.00 0.00 62 1011.5
20260506184004 60 234 0.0 2.0 0.00 0.00 0.00 61 1011.3
20260506183504 60 238 0.0 2.0 0.00 0.00 0.00 65 1011.5
20260506183025 61 220 0.0 2.0 0.00 0.00 0.00 61 1011.4
20260506182504 62 225 1.0 3.0 0.00 0.00 0.00 57 1011.2
20260506182004 62 240 1.0 3.0 0.00 0.00 0.00 58 1011.2
20260506181504 62 228 1.0 3.0 0.00 0.00 0.00 58 1011.0
20260506181004 61 198 1.0 4.0 0.00 0.00 0.00 60 1011.0
20260506180504 60 177 1.0 4.0 0.00 0.00 0.00 63 1010.9
20260506180005 60 143 1.0 4.0 0.00 0.00 0.00 63 1010.9
20260506175504 58 120 2.0 4.0 0.00 0.00 0.00 64 1010.9
20260506175025 58 128 1.0 4.0 0.00 0.00 0.00 64 1010.9
20260506174504 58 180 1.0 2.0 0.00 0.00 0.00 63 1010.8
20260506174005 59 155 1.0 6.0 0.00 0.00 0.00 62 1010.9
20260506173525 59 137 2.0 6.0 0.00 0.00 0.00 60 1010.9
20260506173004 60 120 1.0 4.0 0.00 0.00 0.00 60 1010.7
20260506172504 61 44 1.0 3.0 0.00 0.00 0.00 59 1010.8
20260506172004 61 33 1.0 3.0 0.00 0.00 0.00 59 1010.7
20260506171504 61 256 1.0 4.0 0.00 0.00 0.00 60 1010.7
20260506171004 61 247 1.0 4.0 0.00 0.00 0.00 60 1010.7
20260506170504 62 235 1.0 3.0 0.00 0.00 0.00 59 1010.8
20260506170004 62 298 1.0 7.0 0.00 0.00 0.00 60 1010.8
20260506165504 62 274 1.0 7.0 0.00 0.00 0.00 59 1010.5
20260506165004 62 258 1.0 4.0 0.00 0.00 0.00 59 1010.6
20260506164525 62 272 1.0 4.0 0.00 0.00 0.00 59 1010.5
20260506164004 62 245 1.0 4.0 0.00 0.00 0.00 57 1010.6
20260506163504 63 269 1.0 7.0 0.00 0.00 0.00 56 1010.4
20260506163004 63 292 1.0 7.0 0.00 0.00 0.00 57 1010.5
20260506162525 65 293 2.0 7.0 0.00 0.00 0.00 55 1010.4
20260506162025 65 296 2.0 7.0 0.00 0.00 0.00 53 1010.4
20260506161504 65 339 2.0 9.0 0.00 0.00 0.00 53 1010.4
20260506161025 66 324 3.0 9.0 0.00 0.00 0.00 53 1010.3
20260506160504 66 304 3.0 9.0 0.00 0.00 0.00 51 1010.6
20260506160004 65 301 2.0 7.0 0.00 0.00 0.00 52 1010.3
20260506155504 67 308 2.0 8.0 0.00 0.00 0.00 48 1010.4
20260506155004 67 356 2.0 8.0 0.00 0.00 0.00 50 1010.4
20260506154504 68 43 1.0 4.0 0.00 0.00 0.00 48 1010.5
20260506154004 67 44 2.0 8.0 0.00 0.00 0.00 49 1010.3
20260506153504 66 54 2.0 8.0 0.00 0.00 0.00 48 1010.7
20260506153004 67 326 2.0 8.0 0.00 0.00 0.00 48 1010.5
20260506152504 67 287 2.0 7.0 0.00 0.00 0.00 51 1010.4
20260506152025 66 316 2.0 7.0 0.00 0.00 0.00 48 1010.4
20260506151525 66 302 1.0 6.0 0.00 0.00 0.00 49 1010.6
20260506151004 63 314 2.0 9.0 0.00 0.00 0.00 55 1010.8
20260506150504 63 313 3.0 10.0 0.00 0.00 0.00 52 1010.6
20260506150005 66 299 2.0 10.0 0.00 0.00 0.00 48 1010.8
20260506145504 66 295 2.0 7.0 0.00 0.00 0.00 48 1010.8
20260506145004 66 326 2.0 7.0 0.00 0.00 0.00 49 1010.7
20260506144504 64 356 2.0 8.0 0.00 0.00 0.00 54 1010.9
20260506144004 64 32 2.0 8.0 0.00 0.00 0.00 52 1011.0
20260506143525 65 356 2.0 7.0 0.00 0.00 0.00 52 1010.9
20260506143004 67 349 2.0 7.0 0.00 0.00 0.00 48 1010.9
20260506142504 66 48 2.0 7.0 0.00 0.00 0.00 51 1011.0
20260506142004 67 16 2.0 7.0 0.00 0.00 0.00 51 1011.0
20260506141504 67 34 2.0 8.0 0.00 0.00 0.00 52 1011.0
20260506141004 67 36 2.0 8.0 0.00 0.00 0.00 49 1011.3
20260506140525 67 4 2.0 6.0 0.00 0.00 0.00 50 1011.3
20260506140005 66 30 2.0 7.0 0.00 0.00 0.00 52 1011.4
20260506135504 66 15 3.0 10.0 0.00 0.00 0.00 52 1011.6
20260506135005 65 24 3.0 10.0 0.00 0.00 0.00 52 1011.3
20260506134504 65 26 2.0 10.0 0.00 0.00 0.00 52 1011.4
20260506134004 66 348 2.0 6.0 0.00 0.00 0.00 51 1011.3
20260506133504 66 50 2.0 7.0 0.00 0.00 0.00 52 1011.4
20260506133004 64 59 3.0 9.0 0.00 0.00 0.00 52 1011.4
20260506132504 64 41 2.0 9.0 0.00 0.00 0.00 54 1011.4
20260506132005 62 40 1.0 9.0 0.00 0.00 0.00 56 1011.3
20260506131504 62 255 1.0 6.0 0.00 0.00 0.00 60 1011.5
20260506131004 62 324 2.0 6.0 0.00 0.00 0.00 57 1011.5
20260506130504 65 328 2.0 6.0 0.00 0.00 0.00 57 1011.5
20260506130005 65 334 2.0 8.0 0.00 0.00 0.00 54 1011.5
20260506125504 64 47 3.0 11.0 0.00 0.00 0.00 55 1011.4
20260506125004 64 51 2.0 11.0 0.00 0.00 0.00 56 1011.5
20260506124525 66 49 2.0 11.0 0.00 0.00 0.00 50 1011.5
20260506124004 65 49 2.0 9.0 0.00 0.00 0.00 53 1011.6
20260506123504 65 8 2.0 7.0 0.00 0.00 0.00 52 1011.6
20260506123004 65 332 2.0 7.0 0.00 0.00 0.00 56 1011.7
20260506122504 64 13 2.0 7.0 0.00 0.00 0.00 56 1011.5
20260506122004 64 41 2.0 7.0 0.00 0.00 0.00 55 1011.6
20260506121504 64 335 2.0 7.0 0.00 0.00 0.00 56 1011.5
20260506121004 64 269 2.0 8.0 0.00 0.00 0.00 55 1011.6
20260506120504 64 296 3.0 8.0 0.00 0.00 0.00 55 1011.6
20260506120004 64 328 3.0 8.0 0.00 0.00 0.00 56 1011.8
20260506115504 63 332 2.0 7.0 0.00 0.00 0.00 52 1011.7
20260506115025 64 14 2.0 6.0 0.00 0.00 0.00 52 1011.6
20260506114504 64 344 2.0 9.0 0.00 0.00 0.00 56 1011.6
20260506114004 63 7 2.0 11.0 0.00 0.00 0.00 52 1011.8
20260506113504 62 52 2.0 11.0 0.00 0.00 0.00 56 1011.7
20260506113004 62 52 2.0 6.0 0.00 0.00 0.00 60 1011.7
20260506112504 63 320 2.0 7.0 0.00 0.00 0.00 58 1011.7
20260506112025 63 22 2.0 9.0 0.00 0.00 0.00 57 1012.1
20260506111504 62 78 2.0 9.0 0.00 0.00 0.00 57 1012.0
20260506111004 62 336 2.0 7.0 0.00 0.00 0.00 59 1012.0
20260506110525 62 354 2.0 8.0 0.00 0.00 0.00 59 1011.9
20260506110004 60 16 2.0 8.0 0.00 0.00 0.00 62 1012.0
20260506105504 61 16 2.0 6.0 0.00 0.00 0.00 59 1012.1
20260506105025 60 47 3.0 8.0 0.00 0.00 0.00 60 1012.1
20260506104504 59 47 3.0 8.0 0.00 0.00 0.00 61 1012.2
20260506104004 61 29 2.0 4.0 0.00 0.00 0.00 62 1012.1
20260506103504 59 46 2.0 8.0 0.00 0.00 0.00 65 1012.4
20260506103004 59 50 2.0 8.0 0.00 0.00 0.00 66 1012.1
20260506102504 59 54 2.0 9.0 0.00 0.00 0.00 66 1012.1
20260506102004 57 54 3.0 9.0 0.00 0.00 0.00 66 1012.2
20260506101504 58 23 2.0 7.0 0.00 0.00 0.00 62 1012.2
20260506101004 58 38 2.0 7.0 0.00 0.00 0.00 65 1012.5
20260506100504 57 52 2.0 8.0 0.00 0.00 0.00 64 1012.5
20260506100004 58 43 2.0 8.0 0.00 0.00 0.00 65 1012.4
20260506095504 57 1 2.0 6.0 0.00 0.00 0.00 70 1012.5
20260506095004 58 326 1.0 6.0 0.00 0.00 0.00 70 1012.5
20260506094504 57 24 1.0 4.0 0.00 0.00 0.00 69 1012.6
20260506094004 57 352 1.0 4.0 0.00 0.00 0.00 72 1012.4
20260506093504 57 293 1.0 3.0 0.00 0.00 0.00 71 1012.6
20260506093025 57 276 1.0 2.0 0.00 0.00 0.00 70 1012.4
20260506092525 56 338 1.0 3.0 0.00 0.00 0.00 75 1012.4
20260506092025 56 345 1.0 3.0 0.00 0.00 0.00 77 1012.5
20260506091504 56 238 1.0 4.0 0.00 0.00 0.00 74 1012.4
20260506091004 55 122 1.0 4.0 0.00 0.00 0.00 76 1012.3
20260506090504 56 123 1.0 3.0 0.00 0.00 0.00 78 1012.5
20260506090004 55 260 1.0 4.0 0.00 0.00 0.00 76 1012.3
20260506085504 55 282 1.0 4.0 0.00 0.00 0.00 76 1012.4
20260506085004 54 206 1.0 3.0 0.00 0.00 0.00 76 1012.4
20260506084504 54 217 1.0 2.0 0.00 0.00 0.00 75 1012.4
20260506084004 54 241 0.0 2.0 0.00 0.00 0.00 78 1012.4
20260506083525 54 242 0.0 2.0 0.00 0.00 0.00 76 1012.5
20260506083004 53 262 1.0 3.0 0.00 0.00 0.00 73 1012.5
20260506082504 53 258 1.0 3.0 0.00 0.00 0.00 78 1012.4
20260506082004 53 248 1.0 2.0 0.00 0.00 0.00 77 1012.5
20260506081525 53 253 0.0 2.0 0.00 0.00 0.00 76 1012.4
20260506081004 52 268 1.0 3.0 0.00 0.00 0.00 78 1012.4
20260506080504 51 267 1.0 3.0 0.00 0.00 0.00 80 1012.3
20260506073504 49 253 1.0 3.0 0.00 0.00 0.00 86 1012.6
20260506073004 49 270 0.0 2.0 0.00 0.00 0.00 86 1012.4
20260506072525 49 31 0.0 2.0 0.00 0.00 0.00 88 1012.4
20260506072004 49 247 0.0 2.0 0.00 0.00 0.00 88 1012.4
20260506071504 48 251 1.0 2.0 0.00 0.00 0.00 90 1012.3
20260506071004 47 257 1.0 3.0 0.00 0.00 0.00 91 1012.4
20260506070504 46 254 2.0 4.0 0.00 0.00 0.00 92 1012.4